Location: Champseau
(45.8333°N, 1.7667°E)
Time: 19:05:30
(UTC+00:00)

STRAND 1 - Pass Details

Date: 04 December 2021
Orbit: 768 x 780 km, 98.4° (Epoch: 23 January)

Event Time Altitude Azimuth Distance (km) Brightness Sun altitude
Rises 04:13:04 0° 104° (ESE) 3,252 ? -31.2°
Reaches altitude 10° 04:17:13 10° 70° (ENE) 2,327 ? -30.5°
Maximum altitude 04:18:39 11° 54° (NE) 2,247 ? -30.3°
Drops below altitude 10° 04:20:05 10° 38° (NE) 2,329 ? -30.0°
Sets 04:24:14 0° 5° (N) 3,259 ? -29.3°
